Time,TemperatureF,DewpointF,PressureIn,WindDirection,WindDirectionDegrees,WindSpeedMPH,WindSpeedGustMPH,Humidity,HourlyPrecipIn,Conditions,Clouds,dailyrainin,SoftwareType,DateUTC
2013-03-06 00:01:00,39.0,37.0,-100.00,NE,45,0.0,3.0,93,-99.99,,,-99.99,,2013-03-06 08:01:00,
2013-03-06 00:11:00,39.0,37.0,-100.00,NE,45,0.0,3.0,93,-99.99,,,-99.99,,2013-03-06 08:11:00,
2013-03-06 00:21:00,39.0,37.0,-100.00,NE,45,1.0,4.0,93,-99.99,,,-99.99,,2013-03-06 08:21:00,
2013-03-06 00:31:00,39.0,37.0,-100.00,NE,45,0.0,3.0,93,-99.99,,,-99.99,,2013-03-06 08:31:00,
2013-03-06 00:42:00,39.0,37.0,-100.00,NE,45,0.0,3.0,93,-99.99,,,-99.99,,2013-03-06 08:42:00,
2013-03-06 00:52:00,39.0,37.0,-100.00,North,0,0.0,3.0,93,-99.99,,,-99.99,,2013-03-06 08:52:00,
2013-03-06 01:01:00,39.0,37.0,-100.00,North,-999,0.0,0.0,93,-99.99,,,-99.99,,2013-03-06 09:01:00,
2013-03-06 01:12:00,39.0,37.0,-100.00,North,-999,0.0,0.0,93,-99.99,,,-99.99,,2013-03-06 09:12:00,
2013-03-06 01:21:00,39.0,37.0,-100.00,North,0,0.0,1.0,93,-99.99,,,-99.99,,2013-03-06 09:21:00,
2013-03-06 01:31:00,39.0,37.0,-100.00,North,-999,0.0,0.0,93,-99.99,,,-99.99,,2013-03-06 09:31:00,
2013-03-06 01:41:00,39.0,37.0,-100.00,North,-999,0.0,0.0,93,-99.99,,,-99.99,,2013-03-06 09:41:00,
2013-03-06 01:52:00,39.0,37.0,-100.00,North,-999,0.0,0.0,93,-99.99,,,-99.99,,2013-03-06 09:52:00,
2013-03-06 02:01:00,39.0,37.0,-100.00,North,-999,0.0,0.0,93,-99.99,,,-99.99,,2013-03-06 10:01:00,
2013-03-06 02:21:00,39.0,37.0,-100.00,NE,45,0.0,1.0,93,-99.99,,,-99.99,,2013-03-06 10:21:00,
2013-03-06 02:31:00,39.0,37.0,-100.00,NE,45,0.0,1.0,93,-99.99,,,-99.99,,2013-03-06 10:31:00,
2013-03-06 02:42:00,39.0,37.0,-100.00,NE,45,0.0,1.0,93,-99.99,,,-99.99,,2013-03-06 10:42:00,
2013-03-06 02:52:00,39.0,37.0,-100.00,North,-999,0.0,0.0,93,-99.99,,,-99.99,,2013-03-06 10:52:00,
2013-03-06 03:02:00,39.0,37.0,-100.00,North,-999,0.0,0.0,93,-99.99,,,-99.99,,2013-03-06 11:02:00,
2013-03-06 03:11:00,39.0,37.0,-100.00,North,-999,0.0,0.0,93,-99.99,,,-99.99,,2013-03-06 11:11:00,
2013-03-06 03:22:00,39.0,37.0,-100.00,North,-999,0.0,0.0,93,-99.99,,,-99.99,,2013-03-06 11:22:00,
2013-03-06 03:32:00,39.0,37.0,-100.00,North,-999,0.0,0.0,93,-99.99,,,-99.99,,2013-03-06 11:32:00,
2013-03-06 03:42:00,39.0,37.0,-100.00,North,-999,0.0,0.0,93,-99.99,,,-99.99,,2013-03-06 11:42:00,
2013-03-06 03:52:00,39.0,37.0,-100.00,North,-999,0.0,0.0,93,-99.99,,,-99.99,,2013-03-06 11:52:00,
2013-03-06 04:01:00,39.0,37.0,-100.00,North,-999,0.0,0.0,93,-99.99,,,-99.99,,2013-03-06 12:01:00,
2013-03-06 04:11:00,39.0,37.0,-100.00,North,-999,0.0,0.0,93,-99.99,,,-99.99,,2013-03-06 12:11:00,
2013-03-06 04:33:00,39.0,37.0,-100.00,SE,135,0.0,1.0,93,-99.99,,,-99.99,,2013-03-06 12:33:00,
2013-03-06 04:43:00,39.0,37.0,-100.00,SE,135,0.0,1.0,93,-99.99,,,-99.99,,2013-03-06 12:43:00,
2013-03-06 04:52:00,39.0,37.0,-100.00,SE,135,0.0,1.0,93,-99.99,,,-99.99,,2013-03-06 12:52:00,
2013-03-06 05:01:00,39.0,37.0,-100.00,NE,45,0.0,2.0,93,-99.99,,,-99.99,,2013-03-06 13:01:00,
2013-03-06 05:11:00,39.0,37.0,-100.00,NE,45,0.0,2.0,93,-99.99,,,-99.99,,2013-03-06 13:11:00,
2013-03-06 05:21:00,39.0,37.0,-100.00,North,-999,0.0,0.0,93,-99.99,,,-99.99,,2013-03-06 13:21:00,
2013-03-06 05:32:00,39.0,37.0,-100.00,North,-999,0.0,0.0,93,-99.99,,,-99.99,,2013-03-06 13:32:00,
2013-03-06 05:42:00,39.0,37.0,-100.00,North,-999,0.0,0.0,93,-99.99,,,-99.99,,2013-03-06 13:42:00,
2013-03-06 06:01:00,39.0,37.0,-100.00,North,-999,0.0,0.0,93,-99.99,,,-99.99,,2013-03-06 14:01:00,
2013-03-06 06:11:00,39.0,37.0,-100.00,North,-999,0.0,0.0,93,-99.99,,,-99.99,,2013-03-06 14:11:00,
2013-03-06 06:21:00,39.0,37.0,-100.00,North,-999,0.0,0.0,93,-99.99,,,-99.99,,2013-03-06 14:21:00,
2013-03-06 06:32:00,39.0,37.0,-100.00,North,-999,0.0,0.0,93,-99.99,,,-99.99,,2013-03-06 14:32:00,
2013-03-06 06:42:00,39.0,37.0,-100.00,North,-999,0.0,0.0,93,-99.99,,,-99.99,,2013-03-06 14:42:00,
2013-03-06 06:52:00,39.0,37.0,-100.00,North,-999,0.0,0.0,93,-99.99,,,-99.99,,2013-03-06 14:52:00,
2013-03-06 07:01:00,39.0,37.0,-100.00,North,-999,0.0,0.0,93,-99.99,,,-99.99,,2013-03-06 15:01:00,
2013-03-06 07:11:00,39.0,37.0,-100.00,North,-999,0.0,0.0,93,-99.99,,,-99.99,,2013-03-06 15:11:00,
2013-03-06 07:21:00,39.0,37.0,-100.00,North,-999,0.0,0.0,93,-99.99,,,-99.99,,2013-03-06 15:21:00,
2013-03-06 07:32:00,39.0,37.0,-100.00,North,-999,0.0,0.0,93,-99.99,,,-99.99,,2013-03-06 15:32:00,
2013-03-06 07:42:00,39.0,37.0,-100.00,North,-999,0.0,0.0,93,-99.99,,,-99.99,,2013-03-06 15:42:00,
2013-03-06 07:52:00,39.0,37.0,-100.00,North,-999,0.0,0.0,93,-99.99,,,-99.99,,2013-03-06 15:52:00,
2013-03-06 08:01:00,39.0,37.0,-100.00,North,-999,0.0,0.0,93,-99.99,,,-99.99,,2013-03-06 16:01:00,
2013-03-06 08:11:00,39.0,37.0,-100.00,North,-999,0.0,0.0,93,-99.99,,,-99.99,,2013-03-06 16:11:00,
2013-03-06 08:21:00,40.0,38.0,-100.00,North,-999,0.0,0.0,93,-99.99,,,-99.99,,2013-03-06 16:21:00,
2013-03-06 08:32:00,40.0,38.0,-100.00,North,-999,0.0,0.0,93,-99.99,,,-99.99,,2013-03-06 16:32:00,
2013-03-06 08:41:00,40.0,38.0,-100.00,North,-999,0.0,0.0,93,-99.99,,,-99.99,,2013-03-06 16:41:00,
2013-03-06 08:52:00,40.0,38.0,-100.00,North,-999,0.0,0.0,93,-99.99,,,-99.99,,2013-03-06 16:52:00,
2013-03-06 09:01:00,40.0,38.0,-100.00,North,-999,0.0,0.0,93,-99.99,,,-99.99,,2013-03-06 17:01:00,
2013-03-06 09:11:00,40.0,38.0,-100.00,North,-999,0.0,0.0,93,-99.99,,,-99.99,,2013-03-06 17:11:00,
2013-03-06 09:21:00,40.0,38.0,-100.00,North,-999,0.0,0.0,93,-99.99,,,-99.99,,2013-03-06 17:21:00,
2013-03-06 09:32:00,40.0,38.0,-100.00,North,-999,0.0,0.0,93,-99.99,,,-99.99,,2013-03-06 17:32:00,
2013-03-06 09:42:00,40.0,38.0,-100.00,North,-999,0.0,0.0,93,-99.99,,,-99.99,,2013-03-06 17:42:00,
2013-03-06 09:52:00,40.0,38.0,-100.00,North,-999,0.0,0.0,93,-99.99,,,-99.99,,2013-03-06 17:52:00,
2013-03-06 10:01:00,40.0,38.0,-100.00,North,-999,0.0,0.0,93,-99.99,,,-99.99,,2013-03-06 18:01:00,
2013-03-06 10:28:00,40.0,38.0,-100.00,North,-999,0.0,0.0,93,-99.99,,,-99.99,,2013-03-06 18:28:00,
2013-03-06 10:42:00,40.0,38.0,-100.00,North,-999,0.0,0.0,93,-99.99,,,-99.99,,2013-03-06 18:42:00,
2013-03-06 10:52:00,40.0,38.0,-100.00,North,-999,0.0,0.0,93,-99.99,,,-99.99,,2013-03-06 18:52:00,
2013-03-06 11:02:00,40.0,38.0,-100.00,North,-999,0.0,0.0,93,-99.99,,,-99.99,,2013-03-06 19:02:00,
2013-03-06 11:11:00,40.0,38.0,-100.00,North,-999,0.0,0.0,93,-99.99,,,-99.99,,2013-03-06 19:11:00,
2013-03-06 11:21:00,40.0,38.0,-100.00,North,-999,0.0,0.0,93,-99.99,,,-99.99,,2013-03-06 19:21:00,
2013-03-06 11:32:00,40.0,38.0,-100.00,North,-999,0.0,0.0,93,-99.99,,,-99.99,,2013-03-06 19:32:00,
2013-03-06 11:42:00,40.0,38.0,-100.00,North,-999,0.0,0.0,93,-99.99,,,-99.99,,2013-03-06 19:42:00,
2013-03-06 11:52:00,40.0,38.0,-100.00,North,-999,0.0,0.0,93,-99.99,,,-99.99,,2013-03-06 19:52:00,
2013-03-06 12:01:00,41.0,39.0,-100.00,South,180,0.0,1.0,93,-99.99,,,-99.99,,2013-03-06 20:01:00,
2013-03-06 12:11:00,41.0,39.0,-100.00,South,180,0.0,1.0,93,-99.99,,,-99.99,,2013-03-06 20:11:00,
2013-03-06 12:22:00,40.0,38.0,-100.00,SW,225,0.0,1.0,93,-99.99,,,-99.99,,2013-03-06 20:22:00,
2013-03-06 12:32:00,40.0,38.0,-100.00,SW,225,0.0,3.0,93,-99.99,,,-99.99,,2013-03-06 20:32:00,
2013-03-06 12:42:00,40.0,38.0,-100.00,SW,225,0.0,3.0,93,-99.99,,,-99.99,,2013-03-06 20:42:00,
2013-03-06 12:52:00,40.0,38.0,-100.00,South,180,0.0,1.0,93,-99.99,,,-99.99,,2013-03-06 20:52:00,
2013-03-06 13:02:00,41.0,39.0,-100.00,North,-999,0.0,0.0,93,-99.99,,,-99.99,,2013-03-06 21:02:00,
2013-03-06 13:11:00,41.0,39.0,-100.00,North,-999,0.0,0.0,93,-99.99,,,-99.99,,2013-03-06 21:11:00,
2013-03-06 13:22:00,41.0,39.0,-100.00,North,-999,0.0,0.0,93,-99.99,,,-99.99,,2013-03-06 21:22:00,
2013-03-06 13:32:00,41.0,39.0,-100.00,SW,225,0.0,1.0,93,-99.99,,,-99.99,,2013-03-06 21:32:00,
2013-03-06 13:42:00,41.0,39.0,-100.00,SW,225,0.0,1.0,93,-99.99,,,-99.99,,2013-03-06 21:42:00,
2013-03-06 13:52:00,41.0,39.0,-100.00,South,180,0.0,1.0,93,-99.99,,,-99.99,,2013-03-06 21:52:00,
2013-03-06 14:01:00,41.0,40.0,-100.00,South,180,0.0,1.0,93,-99.99,,,-99.99,,2013-03-06 22:01:00,
2013-03-06 14:11:00,41.0,40.0,-100.00,South,180,0.0,1.0,93,-99.99,,,-99.99,,2013-03-06 22:11:00,
2013-03-06 14:21:00,41.0,40.0,-100.00,North,-999,0.0,0.0,93,-99.99,,,-99.99,,2013-03-06 22:21:00,
2013-03-06 14:32:00,41.0,40.0,-100.00,North,-999,0.0,0.0,93,-99.99,,,-99.99,,2013-03-06 22:32:00,
2013-03-06 14:41:00,41.0,40.0,-100.00,North,-999,0.0,0.0,93,-99.99,,,-99.99,,2013-03-06 22:41:00,
2013-03-06 14:52:00,41.0,40.0,-100.00,North,0,0.0,1.0,93,-99.99,,,-99.99,,2013-03-06 22:52:00,
2013-03-06 15:01:00,41.0,40.0,-100.00,North,-999,0.0,0.0,93,-99.99,,,-99.99,,2013-03-06 23:01:00,
2013-03-06 15:11:00,41.0,40.0,-100.00,North,-999,0.0,0.0,93,-99.99,,,-99.99,,2013-03-06 23:11:00,
2013-03-06 15:21:00,41.0,40.0,-100.00,NE,45,0.0,1.0,93,-99.99,,,-99.99,,2013-03-06 23:21:00,
2013-03-06 15:31:00,41.0,40.0,-100.00,North,-999,0.0,0.0,93,-99.99,,,-99.99,,2013-03-06 23:31:00,
2013-03-06 15:41:00,41.0,40.0,-100.00,North,-999,0.0,0.0,93,-99.99,,,-99.99,,2013-03-06 23:41:00,
2013-03-06 15:52:00,41.0,40.0,-100.00,North,0,0.0,1.0,93,-99.99,,,-99.99,,2013-03-06 23:52:00,
2013-03-06 16:01:00,41.0,40.0,-100.00,NE,45,0.0,1.0,93,-99.99,,,-99.99,,2013-03-07 00:01:00,
2013-03-06 16:11:00,41.0,40.0,-100.00,NE,45,0.0,1.0,93,-99.99,,,-99.99,,2013-03-07 00:11:00,
2013-03-06 16:21:00,41.0,40.0,-100.00,NE,45,0.0,1.0,93,-99.99,,,-99.99,,2013-03-07 00:21:00,
2013-03-06 16:32:00,41.0,39.0,-100.00,NE,45,0.0,2.0,93,-99.99,,,-99.99,,2013-03-07 00:32:00,
2013-03-06 16:41:00,41.0,39.0,-100.00,NE,45,0.0,2.0,93,-99.99,,,-99.99,,2013-03-07 00:41:00,
2013-03-06 16:52:00,41.0,39.0,-100.00,North,-999,0.0,0.0,93,-99.99,,,-99.99,,2013-03-07 00:52:00,
2013-03-06 17:01:00,41.0,39.0,-100.00,NE,45,0.0,1.0,93,-99.99,,,-99.99,,2013-03-07 01:01:00,
2013-03-06 17:11:00,41.0,39.0,-100.00,NE,45,0.0,1.0,93,-99.99,,,-99.99,,2013-03-07 01:11:00,
2013-03-06 17:21:00,41.0,39.0,-100.00,NE,45,0.0,1.0,93,-99.99,,,-99.99,,2013-03-07 01:21:00,
2013-03-06 17:31:00,41.0,39.0,-100.00,NE,45,0.0,1.0,93,-99.99,,,-99.99,,2013-03-07 01:31:00,
2013-03-06 17:41:00,41.0,39.0,-100.00,NE,45,0.0,1.0,93,-99.99,,,-99.99,,2013-03-07 01:41:00,
2013-03-06 17:52:00,41.0,39.0,-100.00,NE,45,0.0,1.0,93,-99.99,,,-99.99,,2013-03-07 01:52:00,
2013-03-06 18:01:00,41.0,39.0,-100.00,NE,45,0.0,2.0,93,-99.99,,,-99.99,,2013-03-07 02:01:00,
2013-03-06 18:11:00,41.0,39.0,-100.00,NE,45,0.0,2.0,93,-99.99,,,-99.99,,2013-03-07 02:11:00,
2013-03-06 18:21:00,41.0,39.0,-100.00,NE,45,0.0,1.0,93,-99.99,,,-99.99,,2013-03-07 02:21:00,
2013-03-06 18:31:00,41.0,39.0,-100.00,NE,45,1.0,2.0,93,-99.99,,,-99.99,,2013-03-07 02:31:00,
2013-03-06 18:41:00,41.0,39.0,-100.00,NE,45,1.0,2.0,93,-99.99,,,-99.99,,2013-03-07 02:41:00,
2013-03-06 18:52:00,41.0,39.0,-100.00,NE,45,1.0,2.0,93,-99.99,,,-99.99,,2013-03-07 02:52:00,
2013-03-06 19:01:00,41.0,39.0,-100.00,NE,45,1.0,2.0,93,-99.99,,,-99.99,,2013-03-07 03:01:00,